Waarnemingen

Advertentie
Mijn weer
Kalmar, Zweden (2670): temperatuur & dauwpunt: 12.01.2021 04:00:00 - 18.01.2021 04:00:00 (CET)Kalmar, Zweden (2670): windsnelheid: 12.01.2021 04:00:00 - 18.01.2021 04:00:00 (CET)Kalmar, Zweden (2670): windrichting: 12.01.2021 04:00:00 - 18.01.2021 04:00:00 (CET)Kalmar, Zweden (2670): luchtdruk: 12.01.2021 04:00:00 - 18.01.2021 04:00:00 (CET)Kalmar, Zweden (2670): zicht: 12.01.2021 04:00:00 - 18.01.2021 04:00:00 (CET)
Datum & Tijd tt [°C] td [°C] ff [km/u] ff [kn] dd ppp [hPa] vv [km]
18.01.2021 04:00:00 -3,5 -4,3 4 2 - 1018,7 10
18.01.2021 03:00:00 -3,3 -4,3 4 2 Z 1018,9 10
18.01.2021 02:00:00 -3,9 -4,3 5 3 Z 1019,4 10
18.01.2021 01:00:00 -4,3 -4,8 0 0 N 1019,7 10
18.01.2021 00:00:00 -4,2 -4,9 4 2 WZW 1020,1 10
17.01.2021 23:00:00 -4,9 -5,2 0 0 N 1020,3 10
17.01.2021 22:00:00 -5,5 -5,8 0 0 N 1020,6 10
17.01.2021 21:00:00 -6,1 -6,4 2 1 - 1020,9 10
17.01.2021 20:00:00 -7,3 -7,6 2 1 - 1021,2 10
17.01.2021 19:00:00 -9,3 -9,6 0 0 N 1021,5 7
17.01.2021 18:00:00 -7,9 -8,2 5 3 W 1021,4 2,0
17.01.2021 17:00:00 -6,1 -6,8 0 0 N 1021,0 10
17.01.2021 16:00:00 -3,3 -4,9 0 0 N 1021,0 10
17.01.2021 15:00:00 -2,6 -4,9 0 0 N 1021,1 10
17.01.2021 14:00:00 -1,9 -4,9 8 4 NW 1021,1 10
17.01.2021 13:00:00 -1,9 -4,9 5 3 W 1021,2 10
17.01.2021 12:00:00 -0,5 -4,4 8 4 ONO 1021,1 10
17.01.2021 11:00:00 -1,6 -4,4 5 3 ONO 1021,2 10
17.01.2021 10:00:00 -2,9 -4,9 2 1 - 1021,1 10
17.01.2021 09:00:00 -3,4 -5,1 4 2 NW 1020,6 10
17.01.2021 08:00:00 -3,7 -5,1 5 3 NW 1020,4 10
17.01.2021 07:00:00 -3,8 -5,3 5 3 N 1019,9 10
17.01.2021 06:00:00 -3,4 -5,4 5 3 NNW 1019,4 10
17.01.2021 05:00:00 -3,4 -5,4 5 3 N 1019,4 10
17.01.2021 04:00:00 -3,5 -5,2 0 0 N 1019,4 10
17.01.2021 03:00:00 -3,6 -4,4 5 3 N 1019,6 10
17.01.2021 02:00:00 -4,1 -4,4 9 5 NNW 1019,7 10
17.01.2021 01:00:00 -4,8 -4,8 5 3 NNW 1019,6 10
17.01.2021 00:00:00 -4,5 -4,6 8 4 NNW 1019,5 10
16.01.2021 23:00:00 -3,2 -3,7 5 3 N 1019,5 10
16.01.2021 22:00:00 -2,1 -2,5 8 4 NW 1019,4 10
16.01.2021 21:00:00 -1,9 -2,3 5 3 N 1019,2 10
16.01.2021 20:00:00 -1,9 -2,2 8 4 N 1019,0 6
16.01.2021 19:00:00 -1,7 -2,4 13 7 NNW 1018,9 10
16.01.2021 18:00:00 -2,0 -2,6 11 6 NW 1018,7 10
16.01.2021 17:00:00 -2,0 -2,8 11 6 NNW 1018,5 10
16.01.2021 16:00:00 -1,8 -2,6 16 9 NNW 1018,3 10
16.01.2021 15:00:00 -1,8 -2,9 18 10 NNW 1018,1 10
16.01.2021 14:00:00 -2,0 -3,3 18 10 NNW 1018,1 10
16.01.2021 13:00:00 -2,0 -3,7 21 11 N 1017,9 10
16.01.2021 12:00:00 -2,3 -4,5 13 7 N 1018,0 10
16.01.2021 11:00:00 -3,3 -5,0 18 10 NNW 1018,2 10
16.01.2021 10:00:00 -3,5 -5,4 16 9 NNW 1018,7 10
16.01.2021 09:00:00 -3,5 -5,7 22 12 NW 1018,5 10
16.01.2021 08:00:00 -4,1 -6,4 21 11 NNW 1019,0 10
16.01.2021 07:00:00 -5,6 -7,0 11 6 NW 1019,7 10
16.01.2021 06:00:00 -7,1 -8,6 9 5 WNW 1020,2 10
16.01.2021 05:00:00 -7,9 -9,5 13 7 W 1021,1 10
16.01.2021 04:00:00 -8,4 -9,6 9 5 WNW 1021,9 10
16.01.2021 03:00:00 -8,6 -9,8 13 7 NW 1022,8 10
16.01.2021 02:00:00 -9,7 -11,0 15 8 NW 1023,4 10
16.01.2021 01:00:00 -9,2 -10,7 15 8 NW 1023,9 10
16.01.2021 00:00:00 -10,3 -11,5 13 7 NW 1024,3 10
15.01.2021 23:00:00 -9,9 -11,0 15 8 NW 1024,9 10
15.01.2021 22:00:00 -9,3 -10,6 16 9 NNW 1024,9 10
15.01.2021 21:00:00 -8,9 -10,4 21 11 NNW 1024,7 10
15.01.2021 20:00:00 -8,6 -10,2 16 9 NNW 1024,6 10
15.01.2021 19:00:00 -8,5 -10,0 18 10 NNW 1024,6 10
15.01.2021 18:00:00 -8,5 -9,8 16 9 NNW 1024,6 10
15.01.2021 17:00:00 -8,5 -9,8 16 9 NNW 1024,4 10
15.01.2021 16:00:00 -7,6 -9,4 21 11 NNW 1023,9 10
15.01.2021 15:00:00 -6,7 -8,9 22 12 NNW 1023,8 10
15.01.2021 14:00:00 -6,0 -8,6 18 10 NNW 1023,6 10
15.01.2021 13:00:00 -5,7 -8,3 18 10 NNW 1023,6 10
15.01.2021 12:00:00 -5,8 -8,4 18 10 NNW 1023,7 10
15.01.2021 11:00:00 -6,1 -8,5 18 10 NNW 1023,7 10
15.01.2021 10:00:00 -7,3 -9,2 18 10 NNW 1023,4 10
15.01.2021 09:00:00 -8,6 -10,1 16 9 NNW 1023,1 10
15.01.2021 08:00:00 -8,3 -9,5 13 7 NNW 1022,6 10
15.01.2021 07:00:00 -8,0 -9,1 13 7 NNW 1022,4 10
15.01.2021 06:00:00 -7,6 -9,0 13 7 N 1022,2 10
15.01.2021 05:00:00 -6,3 -7,8 18 10 NNW 1022,0 10
15.01.2021 04:00:00 -6,6 -8,1 16 9 N 1022,2 10
15.01.2021 03:00:00 -6,7 -8,1 16 9 NNW 1022,0 10
15.01.2021 02:00:00 -5,8 -7,3 26 14 NNW 1022,0 10
15.01.2021 01:00:00 -5,1 -6,5 24 13 NNW 1021,8 10
15.01.2021 00:00:00 -4,5 -5,7 21 11 NNW 1021,6 10
14.01.2021 23:00:00 -3,7 -5,0 18 10 NNW 1021,7 10
14.01.2021 22:00:00 -3,3 -4,4 16 9 NNW 1021,7 10
14.01.2021 21:00:00 -3,0 -3,8 18 10 NNW 1021,5 10
14.01.2021 20:00:00 -2,6 -3,3 22 12 NNW 1020,9 10
14.01.2021 19:00:00 -2,4 -3,0 18 10 NNW 1020,4 10
14.01.2021 18:00:00 -2,2 -2,6 18 10 NNW 1020,4 10
14.01.2021 17:00:00 -2,3 -2,7 21 11 NNW 1020,1 10
14.01.2021 16:00:00 -1,6 -1,8 18 10 NNW 1019,9 10
14.01.2021 15:00:00 -1,2 -1,2 21 11 N 1019,3 10
14.01.2021 14:00:00 -0,7 -0,7 24 13 N 1018,9 10
14.01.2021 13:00:00 -0,4 -0,4 22 12 N 1018,3 10
14.01.2021 12:00:00 0,0 0,0 15 8 N 1018,1 0,6
14.01.2021 11:00:00 0,2 0,2 22 12 NNO 1017,5 1,2
14.01.2021 10:00:00 1,0 0,4 16 9 N 1016,7 10
14.01.2021 09:00:00 1,1 0,4 13 7 N 1016,0 5
14.01.2021 08:00:00 1,1 0,5 15 8 N 1015,0 10
14.01.2021 07:00:00 1,8 0,3 24 13 NNO 1013,7 10
14.01.2021 06:00:00 1,4 0,7 21 11 NNO 1012,9 10
14.01.2021 05:00:00 1,5 0,8 15 8 N 1011,9 10
14.01.2021 04:00:00 1,3 0,7 15 8 N 1011,0 10
14.01.2021 03:00:00 1,0 0,6 11 6 N 1010,0 10
14.01.2021 02:00:00 0,7 0,7 13 7 N 1009,2 5
14.01.2021 01:00:00 0,5 0,5 15 8 N 1008,4 3,8
14.01.2021 00:00:00 0,4 0,1 11 6 N 1007,5 10
13.01.2021 23:00:00 0,1 0,0 13 7 NNW 1006,7 10
13.01.2021 22:00:00 -0,7 -0,7 13 7 N 1006,3 8
13.01.2021 21:00:00 -1,4 -1,8 13 7 NNW 1005,5 10
13.01.2021 20:00:00 0,5 -0,6 9 5 ONO 1004,7 10
13.01.2021 19:00:00 0,1 0,1 13 7 NNO 1003,9 10
13.01.2021 18:00:00 0,0 0,0 9 5 NNO 1003,2 10
13.01.2021 17:00:00 0,0 0,0 11 6 ONO 1002,6 10
13.01.2021 16:00:00 -1,2 -1,2 5 3 N 1002,0 10
13.01.2021 15:00:00 -1,1 -1,1 8 4 NNO 1001,8 0,8
13.01.2021 14:00:00 -1,4 -1,4 8 4 NNO 1001,6 0,3
13.01.2021 13:00:00 -2,0 -2,0 9 5 N 1001,3 0,3
13.01.2021 12:00:00 -2,9 -2,9 5 3 N 1001,5 2,4
13.01.2021 11:00:00 -3,3 -3,3 5 3 N 1001,6 0,3
13.01.2021 10:00:00 -3,1 -3,1 5 3 N 1001,3 0,2
13.01.2021 09:00:00 -3,6 -3,6 5 3 NNW 1001,1 0,3
13.01.2021 08:00:00 -3,5 -3,5 5 3 - 1000,5 0,2
13.01.2021 07:00:00 -3,4 -3,4 4 2 - 1000,0 0,1
13.01.2021 06:00:00 -3,4 -3,4 4 2 - 999,9 0,1
13.01.2021 05:00:00 -3,1 -3,1 0 0 N 999,5 0,2
13.01.2021 04:00:00 -4,0 -4,0 0 0 N 999,3 8
13.01.2021 03:00:00 -2,5 -2,8 9 5 W 999,1 10
13.01.2021 02:00:00 -1,8 -2,1 5 3 W 998,8 10
13.01.2021 01:00:00 -1,8 -1,8 5 3 Z 998,5 10
13.01.2021 00:00:00 -2,7 -2,7 5 3 ZZW 998,4 10
12.01.2021 23:00:00 -4,4 -4,5 4 2 ZW 998,0 10
12.01.2021 22:00:00 -3,3 -3,4 8 4 Z 997,8 10
12.01.2021 21:00:00 -3,2 -3,7 8 4 Z 997,5 10
12.01.2021 20:00:00 -1,4 -1,8 8 4 Z 997,3 10
12.01.2021 19:00:00 -0,8 -1,6 9 5 Z 996,9 10
12.01.2021 18:00:00 -1,0 -2,0 11 6 Z 996,7 10
12.01.2021 17:00:00 -0,4 -1,5 9 5 Z 996,7 10
12.01.2021 16:00:00 -0,2 -1,9 9 5 Z 996,5 10
12.01.2021 15:00:00 0,8 -1,8 9 5 Z 996,1 45
12.01.2021 14:00:00 1,6 -2,2 11 6 ZW 996,0 10
12.01.2021 13:00:00 1,3 -2,5 9 5 W 995,9 10
12.01.2021 12:00:00 0,5 -2,5 13 7 W 995,9 10
12.01.2021 11:00:00 0,0 -2,4 9 5 WZW 995,7 10
12.01.2021 10:00:00 0,1 -1,9 15 8 W 995,0 10
12.01.2021 09:00:00 0,7 -0,2 13 7 W 994,0 10
12.01.2021 08:00:00 1,6 0,3 16 9 W 992,9 10
12.01.2021 07:00:00 3,0 2,1 16 9 W 991,6 10
12.01.2021 06:00:00 3,4 2,8 21 11 ZZW 990,6 7
12.01.2021 05:00:00 3,7 2,8 26 14 ZZW 990,8 10
12.01.2021 04:00:00 3,9 3,2 26 14 Z 991,4 10

tt = temperatuur
td = dauwpunt
ff = windsnelheid
dd = windrichting
ppp = luchtdruk
vv = zicht

Weerstations in de omgeving